Home > Weather > The Bottom > Past weeks

Flag for Caribbean Netherlands Past Weather in The Bottom, Saba, Caribbean Netherlands — Yesterday and Last 2 Weeks

Now
86 °F

Warm.


Feels Like: 97 °F
Forecast: N/A
Wind: 17 mph from East

Location: Roosevelt Airport / Saint Eustatius

Current Time: Aug 25, 2016 at 11:15:11 AM

Latest Report: Aug 25, 2016 at 9:55 AM


Visibility: N/A

Pressure: 29.95 "Hg

Humidity: 75%

Dew Point: 77 °F

Location of The BottomLocation

Past Weather in The Bottom — Graph

°F

The Bottom Temperature Yesterday

Maximum temperature yesterday: 84 °F (at 4:55 PM)
Minimum temperature yesterday: 73 °F (at 9:55 AM)
Average temperature yesterday: 80 °F

High & Low Weather Summary for the Past Weeks

 TemperatureHumidityPressure
High90 °F (Aug 10, 11:55 AM)100% (Aug 24, 3:55 AM)30.07 "Hg (Aug 24, 3:55 AM)
Low73 °F (Aug 24, 9:55 AM)59% (Aug 15, 3:55 PM)29.83 "Hg (Aug 24, 2:55 AM)
Average84 °F76%29.99 "Hg
* Reported Aug 10 9:55 AM — Aug 25 9:55 AM, The Bottom, Weather by CustomWeather, © 2016

Note: Actual official high and low records may vary slightly from our data, if they occured in-between our weather recording intervals... More about our weather records

Advertising

The Bottom Weather History for the Previous 24 Hours

Scroll right to see more
 ConditionsComfort  
Time TempWeatherWind HumidityBarometerVisibility
9:55 AM
Thu, Aug 25
86 °FWarm.17 mph75%29.95 "HgN/A
8:55 AM86 °FWarm.15 mph75%29.95 "HgN/A
7:55 AM84 °FWarm.17 mph79%29.95 "HgN/A
6:55 AM81 °FWarm.15 mph89%29.92 "HgN/A
5:55 AM82 °FWarm.18 mph84%29.92 "HgN/A
4:55 AM82 °FWarm.15 mph84%29.92 "HgN/A
3:55 AM81 °FWarm.13 mph84%29.92 "HgN/A
2:55 AM82 °FWarm.17 mph84%29.92 "HgN/A
1:55 AM82 °FWarm.13 mph84%29.92 "HgN/A
12:55 AM82 °FWarm.13 mph79%29.95 "HgN/A
11:55 PM
Wed, Aug 24
82 °FWarm.17 mph79%29.95 "HgN/A
10:55 PM82 °FWarm.15 mph84%29.95 "HgN/A
9:55 PM81 °FWarm.14 mph89%29.95 "HgN/A
8:55 PM81 °FWarm.8 mph89%29.95 "HgN/A
7:55 PM81 °FWarm.12 mph89%29.92 "HgN/A
6:55 PM81 °FWarm.12 mph89%29.92 "HgN/A
5:55 PM82 °FWarm.9 mph79%29.89 "HgN/A
4:55 PM84 °FWarm.12 mph70%29.89 "HgN/A
3:55 PM82 °FWarm.10 mph79%29.89 "HgN/A
2:55 PM82 °FWarm.10 mph74%29.92 "HgN/A
1:55 PM82 °FWarm.10 mph70%29.92 "HgN/A
12:55 PM82 °FWarm.13 mph74%29.95 "HgN/A
11:55 AM73 °FMild.14 mph94%29.98 "HgN/A
Weather by CustomWeather, © 2016

See weather overviewHow to use our weather pages